This is the latest recevied weather packets stored in our database for station/object WX2NJ-13. If no packets are shown the sender has not sent any weather packets the latest 10 day(s).
| Time | Temp. | Humidity | Pressure | Rain* | Wind** | Luminosity | Snow |
|---|---|---|---|---|---|---|---|
| 1777849430 | 14.44° C | 37% | 1012.8 hPa | 0 mm | 0 m/s | - | - |
| 1777849128 | 14.44° C | 35% | 1012.7 hPa | 0 mm | 0 m/s | - | - |
| 1777848830 | 14.44° C | 35% | 1012.7 hPa | 0 mm | 0 m/s | - | - |
| 1777848531 | 14.44° C | 35% | 1012.8 hPa | 0 mm | 0.45 m/s, 41° | - | - |
| 1777848230 | 14.44° C | 35% | 1012.7 hPa | 0 mm | 0 m/s | - | - |
| 1777847931 | 15° C | 34% | 1012.7 hPa | 0 mm | 0 m/s | - | - |
| 1777847633 | 15° C | 33% | 1012.6 hPa | 0 mm | 0.89 m/s, 132° | - | - |
| 1777847331 | 15° C | 34% | 1012.6 hPa | 0 mm | 1.34 m/s, 245° | - | - |
| 1777847033 | 15° C | 33% | 1012.6 hPa | 0 mm | 0 m/s | - | - |
| 1777846734 | 15.56° C | 33% | 1012.6 hPa | 0 mm | 0.45 m/s, 260° | - | - |
| 1777846433 | 15.56° C | 33% | 1012.6 hPa | 0 mm | 0.89 m/s, 253° | - | - |
| 1777846134 | 15.56° C | 31% | 1012.5 hPa | 0 mm | 0.45 m/s, 51° | - | - |
| 1777845836 | 15.56° C | 32% | 1012.4 hPa | 0 mm | 0.45 m/s, 273° | - | - |
| 1777845534 | 15.56° C | 31% | 1012.4 hPa | 0 mm | 0.89 m/s, 243° | - | - |
| 1777845236 | 15.56° C | 32% | 1012.4 hPa | 0 mm | 0 m/s | - | - |
| 1777844937 | 15.56° C | 31% | 1012.4 hPa | 0 mm | 0.89 m/s, 238° | - | - |
| 1777844636 | 16.11° C | 29% | 1012.3 hPa | 0 mm | 1.34 m/s, 150° | - | - |
| 1777844337 | 16.11° C | 31% | 1012.4 hPa | 0 mm | 0.89 m/s, 287° | - | - |
| 1777844039 | 16.11° C | 30% | 1012.2 hPa | 0 mm | 0.45 m/s, 290° | - | - |
| 1777843737 | 16.67° C | 30% | 1012.3 hPa | 0 mm | 0 m/s | - | - |
| 1777843439 | 16.67° C | 29% | 1012.3 hPa | 0 mm | 0.45 m/s, 330° | - | - |
| 1777843140 | 17.22° C | 29% | 1012.2 hPa | 0 mm | 0 m/s | - | - |
| 1777842839 | 17.22° C | 28% | 1012.2 hPa | 0 mm | 1.79 m/s, 222° | - | - |
| 1777842540 | 17.22° C | 29% | 1012.3 hPa | 0 mm | 0.45 m/s, 215° | - | - |
| 1777842242 | 17.22° C | 29% | 1012.3 hPa | 0 mm | 0.89 m/s, 297° | - | - |
* Rain latest hour (hover to see other rain measurements)
** Current wind speed in m/s (hover to see current wind gust speed)